SWA223 KSAN-KSFO

Flight info

Callsign SWA223
Flight time 1h 7m
Altitude 36000
Route PADRZ2 IKAYE RIZIN SPLNT STOKD SERFR SERFR4
Aircraft B738/M-SDE2E3FGHIRWXY/LB1

Departure

Time 2026-05-06 15:58
Airport San Diego International Airport (KSAN)

Arrival

Time 2026-05-06 17:06
Airport San Francisco International Airport (KSFO)
Time Latitude Longitude Altitude Speed Heading
2026-05-06 15:36 32.73288 -117.19556 28 ft 0 kts 282°
2026-05-06 15:48 32.73284 -117.19537 32 ft 2 kts 283°
2026-05-06 15:48 32.73280 -117.19518 31 ft 2 kts 285°
2026-05-06 15:48 32.73275 -117.19500 25 ft 2 kts 292°
2026-05-06 15:49 32.73266 -117.19484 26 ft 2 kts 359°
2026-05-06 15:49 32.73259 -117.19484 25 ft 0 kts 13°
2026-05-06 15:51 32.73263 -117.19483 26 ft 3 kts 14°
2026-05-06 15:51 32.73297 -117.19473 24 ft 6 kts 14°
2026-05-06 15:51 32.73336 -117.19461 27 ft 6 kts 16°
2026-05-06 15:51 32.73360 -117.19426 25 ft 6 kts 89°
2026-05-06 15:52 32.73348 -117.19360 24 ft 11 kts 105°
2026-05-06 15:52 32.73319 -117.19241 22 ft 18 kts 106°
2026-05-06 15:52 32.73284 -117.19097 27 ft 18 kts 106°
2026-05-06 15:52 32.73250 -117.18959 27 ft 17 kts 106°
2026-05-06 15:53 32.73219 -117.18825 27 ft 17 kts 105°
2026-05-06 15:53 32.73187 -117.18694 27 ft 16 kts 106°
2026-05-06 15:53 32.73156 -117.18567 26 ft 16 kts 106°
2026-05-06 15:53 32.73123 -117.18430 25 ft 18 kts 106°
2026-05-06 15:54 32.73089 -117.18291 23 ft 17 kts 106°
2026-05-06 15:54 32.73061 -117.18175 21 ft 5 kts 101°
2026-05-06 15:54 32.73061 -117.18153 20 ft 0 kts 83°
2026-05-06 15:54 32.73062 -117.18146 20 ft 0 kts 78°
2026-05-06 15:55 32.73063 -117.18142 20 ft 0 kts 78°
2026-05-06 15:57 32.73105 -117.18111 20 ft 13 kts
2026-05-06 15:57 32.73154 -117.18139 21 ft 1 kts 291°
2026-05-06 15:58 32.73186 -117.18266 25 ft 54 kts 286°
2026-05-06 15:58 32.73377 -117.19056 28 ft 142 kts 286°
2026-05-06 15:58 32.73723 -117.20403 406 ft 186 kts 288°
2026-05-06 15:58 32.74135 -117.21908 1544 ft 194 kts 288°
2026-05-06 15:59 32.74521 -117.23395 2918 ft 182 kts 293°
2026-05-06 15:59 32.75254 -117.24710 3512 ft 204 kts 315°
2026-05-06 15:59 32.76279 -117.26031 3763 ft 228 kts 311°
2026-05-06 15:59 32.77313 -117.27560 4058 ft 250 kts 309°
2026-05-06 16:00 32.78380 -117.29265 4680 ft 261 kts 308°
2026-05-06 16:00 32.79447 -117.31033 5574 ft 265 kts 307°
2026-05-06 16:00 32.80558 -117.32825 6374 ft 272 kts 309°
2026-05-06 16:00 32.81713 -117.34607 7129 ft 278 kts 310°
2026-05-06 16:01 32.82922 -117.36460 7695 ft 282 kts 310°
2026-05-06 16:01 32.84116 -117.38294 7986 ft 285 kts 311°
2026-05-06 16:01 32.85337 -117.40178 8283 ft 290 kts 311°
2026-05-06 16:01 32.86570 -117.42087 9131 ft 291 kts 311°
2026-05-06 16:02 32.87808 -117.44007 10031 ft 294 kts 312°
2026-05-06 16:02 32.89078 -117.45974 10554 ft 309 kts 312°
2026-05-06 16:02 32.90442 -117.48084 10746 ft 334 kts 311°
2026-05-06 16:02 32.91884 -117.50327 11259 ft 345 kts 311°
2026-05-06 16:03 32.93348 -117.52611 12052 ft 347 kts 311°
2026-05-06 16:03 32.94816 -117.54902 12906 ft 348 kts 311°
2026-05-06 16:03 32.96291 -117.57203 13725 ft 350 kts 311°
2026-05-06 16:03 32.97781 -117.59528 14424 ft 354 kts 311°
2026-05-06 16:04 32.99287 -117.61878 15085 ft 358 kts 312°
2026-05-06 16:04 33.00806 -117.64250 15756 ft 362 kts 311°
2026-05-06 16:04 33.02342 -117.66650 16386 ft 367 kts 311°
2026-05-06 16:04 33.03897 -117.69083 17037 ft 371 kts 312°
2026-05-06 16:05 33.05452 -117.71515 17683 ft 375 kts 312°
2026-05-06 16:05 33.07122 -117.73902 18317 ft 375 kts 320°
2026-05-06 16:05 33.09095 -117.75942 18907 ft 375 kts 325°
2026-05-06 16:05 33.11127 -117.77903 19518 ft 377 kts 326°
2026-05-06 16:06 33.13163 -117.79888 20126 ft 379 kts 325°
2026-05-06 16:06 33.15194 -117.81915 20707 ft 382 kts 324°
2026-05-06 16:06 33.17227 -117.83977 21286 ft 385 kts 324°
2026-05-06 16:06 33.19273 -117.86067 21854 ft 388 kts 324°
2026-05-06 16:07 33.21249 -117.88239 22397 ft 392 kts 321°
2026-05-06 16:07 33.23200 -117.90543 22943 ft 395 kts 320°
2026-05-06 16:07 33.25138 -117.92889 23482 ft 398 kts 320°
2026-05-06 16:07 33.27090 -117.95263 23957 ft 401 kts 320°
2026-05-06 16:08 33.29057 -117.97649 24390 ft 404 kts 320°
2026-05-06 16:08 33.31040 -118.00043 24810 ft 407 kts 320°
2026-05-06 16:08 33.33040 -118.02449 25221 ft 410 kts 320°
2026-05-06 16:08 33.35061 -118.04873 25631 ft 412 kts 321°
2026-05-06 16:09 33.37097 -118.07312 26021 ft 415 kts 320°
2026-05-06 16:09 33.38451 -118.08935 26289 ft 416 kts 320°
2026-05-06 16:09 33.40501 -118.11391 26673 ft 419 kts 320°
2026-05-06 16:09 33.42571 -118.13872 27037 ft 422 kts 321°
2026-05-06 16:10 33.44649 -118.16364 27402 ft 425 kts 321°
2026-05-06 16:10 33.46746 -118.18882 27784 ft 428 kts 321°
2026-05-06 16:10 33.48855 -118.21416 28126 ft 430 kts 321°
2026-05-06 16:10 33.50974 -118.23963 28476 ft 433 kts 321°
2026-05-06 16:11 33.53110 -118.26533 28818 ft 436 kts 321°
2026-05-06 16:11 33.55257 -118.29118 29152 ft 439 kts 321°
2026-05-06 16:11 33.57423 -118.31728 29430 ft 442 kts 321°
2026-05-06 16:11 33.59575 -118.34322 29720 ft 446 kts 321°
2026-05-06 16:12 33.61767 -118.36968 30020 ft 448 kts 321°
2026-05-06 16:12 33.63967 -118.39626 30325 ft 450 kts 321°
2026-05-06 16:12 33.66173 -118.42295 30709 ft 449 kts 321°
2026-05-06 16:12 33.68360 -118.44945 31185 ft 445 kts 321°
2026-05-06 16:13 33.70528 -118.47574 31630 ft 442 kts 321°
2026-05-06 16:13 33.72694 -118.50200 32022 ft 441 kts 321°
2026-05-06 16:13 33.74855 -118.52819 32359 ft 441 kts 321°
2026-05-06 16:13 33.77012 -118.55435 32718 ft 440 kts 321°
2026-05-06 16:14 33.79163 -118.58047 33110 ft 439 kts 321°
2026-05-06 16:14 33.81307 -118.60653 33502 ft 437 kts 322°
2026-05-06 16:14 33.83443 -118.63251 33862 ft 436 kts 322°
2026-05-06 16:14 33.85574 -118.65844 34193 ft 435 kts 322°
2026-05-06 16:15 33.87700 -118.68432 34480 ft 434 kts 321°
2026-05-06 16:15 33.89817 -118.71014 34776 ft 433 kts 321°
2026-05-06 16:15 33.91936 -118.73598 35020 ft 433 kts 321°
2026-05-06 16:15 33.94052 -118.76179 35219 ft 435 kts 321°
2026-05-06 16:16 33.96179 -118.78777 35460 ft 435 kts 321°
2026-05-06 16:16 33.98304 -118.81376 35749 ft 434 kts 321°
2026-05-06 16:16 34.00389 -118.83927 36013 ft 433 kts 320°
2026-05-06 16:16 34.02505 -118.86518 36136 ft 435 kts 320°
2026-05-06 16:17 34.06774 -118.91749 36131 ft 439 kts 320°
2026-05-06 16:17 34.11010 -118.96997 36124 ft 434 kts 319°
2026-05-06 16:18 34.15151 -119.02292 36133 ft 439 kts 312°
2026-05-06 16:18 34.18452 -119.08572 36141 ft 444 kts 306°
2026-05-06 16:19 34.21572 -119.14970 36142 ft 445 kts 307°
2026-05-06 16:19 34.24791 -119.21378 36128 ft 446 kts 307°
2026-05-06 16:20 34.28054 -119.27754 36127 ft 446 kts 307°
2026-05-06 16:20 34.31321 -119.34126 36142 ft 446 kts 307°
2026-05-06 16:21 34.34592 -119.40501 36143 ft 445 kts 307°
2026-05-06 16:21 34.37838 -119.46890 36126 ft 445 kts 307°
2026-05-06 16:22 34.41140 -119.53223 36121 ft 442 kts 312°
2026-05-06 16:22 34.45229 -119.58568 36132 ft 433 kts 321°
2026-05-06 16:23 34.49546 -119.63643 36141 ft 429 kts 323°
2026-05-06 16:23 34.53821 -119.68716 36166 ft 431 kts 317°
2026-05-06 16:24 34.57909 -119.74051 36131 ft 431 kts 320°
2026-05-06 16:24 34.62130 -119.79231 36148 ft 431 kts 320°
2026-05-06 16:25 34.66388 -119.84359 36159 ft 430 kts 320°
2026-05-06 16:25 34.70551 -119.89545 36138 ft 431 kts 320°
2026-05-06 16:26 34.74744 -119.94777 36134 ft 432 kts 320°
2026-05-06 16:26 34.78960 -120.00009 36156 ft 434 kts 320°
2026-05-06 16:27 34.83190 -120.05267 36156 ft 435 kts 320°
2026-05-06 16:27 34.87453 -120.10521 36157 ft 436 kts 319°
2026-05-06 16:28 34.91677 -120.15827 36148 ft 437 kts 319°
2026-05-06 16:28 34.95888 -120.21116 36151 ft 437 kts 319°
2026-05-06 16:29 35.00129 -120.26426 36171 ft 436 kts 319°
2026-05-06 16:29 35.04364 -120.31727 36166 ft 436 kts 319°
2026-05-06 16:30 35.07871 -120.36129 36166 ft 435 kts 319°
2026-05-06 16:30 35.12923 -120.42051 36156 ft 431 kts 323°
2026-05-06 16:31 35.17371 -120.46958 36169 ft 430 kts 323°
2026-05-06 16:31 35.21803 -120.51882 36163 ft 430 kts 323°
2026-05-06 16:32 35.26213 -120.56833 36155 ft 430 kts 322°
2026-05-06 16:32 35.30614 -120.61791 36155 ft 429 kts 322°
2026-05-06 16:33 35.34998 -120.66739 36165 ft 429 kts 322°
2026-05-06 16:34 35.41551 -120.74151 36180 ft 429 kts 322°
2026-05-06 16:34 35.45957 -120.79137 36222 ft 431 kts 322°
2026-05-06 16:35 35.50462 -120.83986 36218 ft 428 kts 327°
2026-05-06 16:35 35.55225 -120.88370 36216 ft 427 kts 329°
2026-05-06 16:36 35.59904 -120.92619 35899 ft 412 kts 329°
2026-05-06 16:36 35.62179 -120.94710 35607 ft 405 kts 329°
2026-05-06 16:36 35.64400 -120.96762 35196 ft 403 kts 328°
2026-05-06 16:36 35.66628 -120.98828 34858 ft 400 kts 328°
2026-05-06 16:37 35.68852 -121.00897 34510 ft 398 kts 328°
2026-05-06 16:37 35.71050 -121.02948 34149 ft 395 kts 328°
2026-05-06 16:37 35.73241 -121.04996 33728 ft 393 kts 328°
2026-05-06 16:37 35.75413 -121.07025 33354 ft 390 kts 328°
2026-05-06 16:38 35.77563 -121.09034 32981 ft 387 kts 328°
2026-05-06 16:38 35.79705 -121.11036 32622 ft 385 kts 328°
2026-05-06 16:38 35.81809 -121.13004 32268 ft 382 kts 328°
2026-05-06 16:38 35.83926 -121.14987 31920 ft 380 kts 328°
2026-05-06 16:39 35.86023 -121.16952 31569 ft 377 kts 327°
2026-05-06 16:39 35.88109 -121.18909 31224 ft 375 kts 327°
2026-05-06 16:39 35.90175 -121.20847 30886 ft 373 kts 327°
2026-05-06 16:39 35.92237 -121.22784 30542 ft 371 kts 327°
2026-05-06 16:40 35.94284 -121.24708 30181 ft 369 kts 327°
2026-05-06 16:40 35.96320 -121.26622 29793 ft 366 kts 327°
2026-05-06 16:40 35.98337 -121.28521 29426 ft 363 kts 327°
2026-05-06 16:40 36.00340 -121.30408 29071 ft 360 kts 327°
2026-05-06 16:41 36.02302 -121.32256 28721 ft 358 kts 327°
2026-05-06 16:41 36.04274 -121.34115 28376 ft 355 kts 327°
2026-05-06 16:41 36.06238 -121.35968 28024 ft 353 kts 327°
2026-05-06 16:41 36.08225 -121.37729 27589 ft 351 kts 330°
2026-05-06 16:42 36.10279 -121.39350 27222 ft 349 kts 332°
2026-05-06 16:42 36.12340 -121.40920 26859 ft 347 kts 332°
2026-05-06 16:42 36.14391 -121.42477 26519 ft 345 kts 332°
2026-05-06 16:42 36.16424 -121.44030 26185 ft 342 kts 332°
2026-05-06 16:43 36.18418 -121.45564 25855 ft 341 kts 332°
2026-05-06 16:43 36.20432 -121.47122 25518 ft 340 kts 332°
2026-05-06 16:43 36.22434 -121.48678 25190 ft 339 kts 331°
2026-05-06 16:43 36.24428 -121.50230 24877 ft 337 kts 332°
2026-05-06 16:44 36.26407 -121.51776 24543 ft 335 kts 331°
2026-05-06 16:44 36.28376 -121.53315 24208 ft 335 kts 331°
2026-05-06 16:44 36.30359 -121.54865 23863 ft 335 kts 331°
2026-05-06 16:44 36.32328 -121.56407 23498 ft 334 kts 331°
2026-05-06 16:45 36.34265 -121.57925 23143 ft 333 kts 331°
2026-05-06 16:45 36.36220 -121.59457 22805 ft 332 kts 331°
2026-05-06 16:45 36.38163 -121.60982 22466 ft 330 kts 331°
2026-05-06 16:45 36.40098 -121.62501 22133 ft 328 kts 331°
2026-05-06 16:46 36.42018 -121.64009 21812 ft 326 kts 331°
2026-05-06 16:46 36.43928 -121.65509 21491 ft 324 kts 331°
2026-05-06 16:46 36.45831 -121.67005 21175 ft 322 kts 331°
2026-05-06 16:46 36.47720 -121.68490 20854 ft 320 kts 331°
2026-05-06 16:47 36.49595 -121.69966 20557 ft 319 kts 331°
2026-05-06 16:47 36.51473 -121.71446 20194 ft 319 kts 331°
2026-05-06 16:47 36.53346 -121.72925 19880 ft 318 kts 331°
2026-05-06 16:47 36.55214 -121.74402 19571 ft 317 kts 331°
2026-05-06 16:48 36.57073 -121.75873 19238 ft 316 kts 331°
2026-05-06 16:48 36.58923 -121.77337 18927 ft 315 kts 331°
2026-05-06 16:48 36.60766 -121.78797 18612 ft 311 kts 331°
2026-05-06 16:48 36.62573 -121.80230 18265 ft 305 kts 331°
2026-05-06 16:49 36.64322 -121.81617 17939 ft 299 kts 331°
2026-05-06 16:49 36.66060 -121.82996 17630 ft 292 kts 331°
2026-05-06 16:49 36.67753 -121.84339 17319 ft 286 kts 331°
2026-05-06 16:49 36.69437 -121.85674 16915 ft 288 kts 331°
2026-05-06 16:50 36.71132 -121.87019 16614 ft 289 kts 331°
2026-05-06 16:50 36.72853 -121.88385 16355 ft 298 kts 331°
2026-05-06 16:50 36.74684 -121.89629 16015 ft 301 kts 345°
2026-05-06 16:50 36.76024 -121.90055 15825 ft 299 kts 350°
2026-05-06 16:51 36.78743 -121.90771 15392 ft 298 kts 351°
2026-05-06 16:51 36.80766 -121.91305 15088 ft 297 kts 350°
2026-05-06 16:51 36.82786 -121.91849 14783 ft 296 kts 350°
2026-05-06 16:51 36.84796 -121.92399 14475 ft 295 kts 350°
2026-05-06 16:52 36.86797 -121.92952 14172 ft 294 kts 350°
2026-05-06 16:52 36.88793 -121.93507 13855 ft 293 kts 349°
2026-05-06 16:52 36.90761 -121.94057 13530 ft 292 kts 349°
2026-05-06 16:52 36.92742 -121.94611 13201 ft 291 kts 349°
2026-05-06 16:53 36.94714 -121.95163 12914 ft 290 kts 349°
2026-05-06 16:53 36.96662 -121.95808 12600 ft 289 kts 345°
2026-05-06 16:53 36.98579 -121.96552 12297 ft 288 kts 344°
2026-05-06 16:53 37.00479 -121.97312 12009 ft 286 kts 344°
2026-05-06 16:54 37.02379 -121.98072 11717 ft 285 kts 344°
2026-05-06 16:54 37.04244 -121.98812 11431 ft 284 kts 344°
2026-05-06 16:54 37.06129 -121.99557 11146 ft 283 kts 344°
2026-05-06 16:54 37.08005 -122.00295 10846 ft 282 kts 344°
2026-05-06 16:55 37.09878 -122.01030 10561 ft 281 kts 344°
2026-05-06 16:55 37.11723 -122.01753 10260 ft 274 kts 344°
2026-05-06 16:55 37.13512 -122.02455 10085 ft 263 kts 344°
2026-05-06 16:55 37.15227 -122.03127 9883 ft 254 kts 344°
2026-05-06 16:56 37.16338 -122.03562 9696 ft 251 kts 344°
2026-05-06 16:56 37.18000 -122.04212 9452 ft 250 kts 344°
2026-05-06 16:56 37.19664 -122.04864 9205 ft 251 kts 344°
2026-05-06 16:56 37.21359 -122.05527 8972 ft 263 kts 344°
2026-05-06 16:57 37.23132 -122.06222 8687 ft 267 kts 344°
2026-05-06 16:57 37.25447 -122.07131 8304 ft 259 kts 343°
2026-05-06 16:57 37.26597 -122.07583 8110 ft 255 kts 344°
2026-05-06 16:57 37.28277 -122.08243 7801 ft 251 kts 344°
2026-05-06 16:58 37.29940 -122.08897 7499 ft 255 kts 344°
2026-05-06 16:58 37.31642 -122.09567 7168 ft 258 kts 344°
2026-05-06 16:58 37.33371 -122.10248 6853 ft 261 kts 343°
2026-05-06 16:58 37.35100 -122.10930 6482 ft 259 kts 344°
2026-05-06 16:59 37.36814 -122.11606 6124 ft 257 kts 344°
2026-05-06 16:59 37.38515 -122.12249 5796 ft 253 kts 346°
2026-05-06 16:59 37.40208 -122.12818 5483 ft 249 kts 346°
2026-05-06 16:59 37.41872 -122.13365 5199 ft 246 kts 346°
2026-05-06 17:00 37.43526 -122.13911 4912 ft 243 kts 346°
2026-05-06 17:00 37.45105 -122.14436 4807 ft 225 kts 346°
2026-05-06 17:00 37.46559 -122.14923 4667 ft 209 kts 346°
2026-05-06 17:00 37.47914 -122.15377 4301 ft 206 kts 346°
2026-05-06 17:01 37.49303 -122.15844 3923 ft 204 kts 347°
2026-05-06 17:01 37.50652 -122.16297 3626 ft 195 kts 346°
2026-05-06 17:01 37.51957 -122.16736 3379 ft 195 kts 346°
2026-05-06 17:01 37.53247 -122.17318 3133 ft 201 kts 325°
2026-05-06 17:02 37.54150 -122.18670 2931 ft 204 kts 301°
2026-05-06 17:02 37.54852 -122.20202 2772 ft 196 kts 300°
2026-05-06 17:02 37.55495 -122.21663 2540 ft 188 kts 298°
2026-05-06 17:02 37.56084 -122.23065 2304 ft 174 kts 297°
2026-05-06 17:03 37.56630 -122.24378 2099 ft 162 kts 297°
2026-05-06 17:03 37.57145 -122.25617 1865 ft 158 kts 297°
2026-05-06 17:03 37.57642 -122.26809 1661 ft 150 kts 297°
2026-05-06 17:03 37.58117 -122.27951 1454 ft 146 kts 297°
2026-05-06 17:04 37.58594 -122.29097 1254 ft 149 kts 296°
2026-05-06 17:04 37.59075 -122.30250 1042 ft 147 kts 297°
2026-05-06 17:04 37.59549 -122.31387 838 ft 146 kts 297°
2026-05-06 17:04 37.60017 -122.32514 661 ft 146 kts 297°
2026-05-06 17:05 37.60479 -122.33660 483 ft 148 kts 298°
2026-05-06 17:05 37.60974 -122.34811 269 ft 148 kts 299°
2026-05-06 17:05 37.61432 -122.35909 53 ft 133 kts 299°
2026-05-06 17:05 37.61836 -122.36865 16 ft 109 kts 297°
2026-05-06 17:06 37.62123 -122.37544 17 ft 60 kts 298°
2026-05-06 17:06 37.62209 -122.37887 21 ft 33 kts 278°
2026-05-06 17:06 37.62224 -122.38049 24 ft 10 kts 276°
2026-05-06 17:06 37.62226 -122.38072 24 ft 2 kts 276°
2026-05-06 17:07 37.62228 -122.38089 27 ft 2 kts 276°
2026-05-06 17:07 37.62229 -122.38116 26 ft 7 kts 274°
2026-05-06 17:07 37.62228 -122.38193 22 ft 10 kts 266°
2026-05-06 17:07 37.62223 -122.38287 20 ft 11 kts 266°
2026-05-06 17:08 37.62220 -122.38397 20 ft 14 kts 268°
2026-05-06 17:08 37.62217 -122.38514 20 ft 13 kts 268°
2026-05-06 17:08 37.62193 -122.38618 18 ft 11 kts 235°
2026-05-06 17:08 37.62169 -122.38710 14 ft 10 kts 289°
2026-05-06 17:09 37.62193 -122.38801 14 ft 11 kts 282°
2026-05-06 17:09 37.62144 -122.38864 13 ft 8 kts 239°
2026-05-06 17:09 37.62142 -122.38871 14 ft 0 kts 244°
2026-05-06 17:09 37.62139 -122.38878 16 ft 2 kts 245°
2026-05-06 17:10 37.62137 -122.38882 15 ft 0 kts 232°